sat.trackr.live / text

‹ back to catalog

STARLINK-32887

NORAD 62964 · 2025-029S

PAYLOAD ACTIVE UNKNOWN

§ Identity

Operator
Country
US
Launch date
2025-02-11
Launch site
AFWTR
Launch vehicle
Mass (kg)
RCS (m²)

Purposes: comms

External: N2YO · Heavens-Above · Gunter

§ Orbital elements

Epoch: 2026-09-21T20:37:04.126656Z

Period
93.85 min
Inclination
53.1591°
Eccentricity
0.0001001
Mean motion
15.34405502 rev/d
Perigee alt
462.0 km
Apogee alt
463.4 km
Semi-major
6,840.8 km
B*
6.4560e-4
RAAN
35.4792°
Arg perigee
83.1226°
Mean anomaly
276.9890°
Rev number
9,143

§ Raw data

STARLINK-328871 62964U 25029S   26264.85907554  .00021503  00000+0  64560-3 0  99922 62964  53.1591  35.4792 0001001  83.1226 276.9890 15.34405502 91434

JSON: /api/v1/satellites/62964 · /tle

For live sub-satellite position, see the globe view (requires WebGL).

§ Visibility from observer

Set your observer location to see the next 7 days of passes ≥ 10°. The values pass through the URL so the page stays shareable.

No JS? Fill the form by hand. The geolocation button needs JavaScript.